Regional Weather Roundup
Issued by NWS

Home | Current Version | Previous Version | Graphics & Text | Print | Product List | Glossary On
Versions: 1 2 3 4 5 6 7 8 9 10 11 12 13 14 15 16 17 18 19 20 21 22 23 24 25 26 27 28 29 30 31 32 33 34 35 36 37 38 39 40 41 42 43 44 45 46 47 48 49 50
997
ASUS45 KSLC 192310
RWRUT

UTAH REGIONAL WEATHER ROUNDUP
NATIONAL WEATHER SERVICE SALT LAKE CITY UT
400 PM MST SUN FEB 19 2017

UTZ001>011-023>025-200000-

NORTHERN UTAH

CITY           SKY/WX    TMP DP  RH WIND       PRES   REMARKS
BRIGHAM CITY     N/A     51  40  65 SW6       29.74R
HILL AFB       MOSUNNY   51  39  62 SW12      29.74R
LOGAN          CLOUDY    52  38  58 N3        29.73R
OGDEN          PTSUNNY   52  35  52 W12       29.73R
SALT LAKE CITY PTSUNNY   52  39  61 NE3       29.74R
TOOELE VALLEY  MOSUNNY   54  37  54 NE7       29.74R
WENDOVER       MOSUNNY   55  28  35 W16G24    29.72R
HEBER CITY     CLOUDY    43  36  75 NW6       29.75S
WEST JORDAN    PTSUNNY   53  46  77 CALM      29.75R

$$

UTZ011>015-024>027-200000-

CENTRAL/NORTHEAST UTAH

CITY           SKY/WX    TMP DP  RH WIND       PRES   REMARKS
PROVO AIRPORT  PTSUNNY   49  39  68 S8        29.77R
MOAB/CANYONLAN CLOUDY    45  42  89 NE5       29.76R
DELTA          MOSUNNY   55  30  38 SW6       29.74S
PRICE          CLOUDY    38  38 100 E7        29.77R WCI  33
RICHFIELD      PTSUNNY   52  32  46 W6G14     29.78R
ROOSEVELT      CLOUDY    43  39  87 SE6       29.75R
VERNAL         LGT RAIN  39  38  96 VRB3      29.74R

$$

UTZ013>016-019>022-027-200000-

SOUTHERN UTAH

CITY           SKY/WX    TMP DP  RH WIND       PRES   REMARKS
BRYCE CANYON   CLOUDY    37  30  75 SW6       29.84R WCI  32
CEDAR CITY     MOSUNNY   49  34  56 SW17G25   29.83R
MILFORD        MOSUNNY   51  37  58 S26G35    29.78R
ST GEORGE      CLOUDY    54  43  66 W10       29.88R
HANKSVILLE     CLOUDY    48  37  66 SE13      29.79R
KANAB          MOSUNNY   50  39  66 SW17G24   29.91R
BLANDING       MOSUNNY   44  36  72 SW6       29.90R

$$

REGIONAL REPORTS     COLORADO/ARIZONA

CITY           SKY/WX    TMP DP  RH WIND       PRES   REMARKS
CRAIG, CO      LGT RAIN  42  36  79 CALM      29.73R
GRAND JUNCTION CLOUDY    43  40  89 E6        29.79R
RIFLE, CO      CLOUDY    42  37  82 W26G35    29.75R
MONTROSE, CO   PTSUNNY   46  29  51 N7        29.80R
CORTEZ, CO     CLOUDY    44  36  73 S13       29.84F
COLORADO CITY  MOCLDY    48  37  66 W10       29.91R
PAGE, AZ       SUNNY     50  37  61 SE6       29.83S
GRAND CANYON   CLOUDY    39  39 100 SW12      29.91R WCI  32
KINGMAN, AZ    CLOUDY    55  36  48 SW12      29.92R
FLAGSTAFF, AZ  CLOUDY    37  33  85 SW15      29.92R WCI  28

$$

REGIONAL REPORTS    NEVADA/IDAHO/WYOMING

CITY           SKY/WX    TMP DP  RH WIND       PRES   REMARKS
LAS VEGAS, NV  PTSUNNY   62  37  39 S10       29.84R
ELY, NY        PTSUNNY   48  30  49 SW8G20    29.80R
ELKO, NV       MOSUNNY   50  23  34 W18G25    29.72R
POCATELLO, ID  FLURRIES  35  32  88 SW8       29.73R WCI  29
BURLEY, ID     MOSUNNY   50  29  44 W14       29.69R
FORT BRIDGER,    N/A     38  36  91 SW13      29.77R WCI  30
EVANSTON, WY   CLOUDY    35  30  82 SW9       29.76R WCI  28
ROCK SPRINGS,  CLOUDY    35  32  88 SW14      29.73R WCI  26
KEMMERER, WY     N/A     36  28  75 W9        29.74R WCI  29

$$




USA.gov is the U.S. government's official web portal to all federal, state and local government web resources and services.